Location: Peterborough
(44.3091°N, 78.3197°W)
Time: 19:09:25
(UTC-04:00)

Tiros 1 - Pass Details

Date: 25 March 2023
Orbit: 627 x 661 km, 48.4° (Epoch: 04 June)

Event Time Altitude Azimuth Distance (km) Brightness Sun altitude
Exits shadow 06:08:11 - 215° (SW) 2,271 9.5 -11.3°
Reaches altitude 10° 06:08:45 10° 212° (SSW) 2,066 9.3 -11.2°
Maximum altitude 06:13:12 39° 144° (SE) 982 8.3 -10.5°
Drops below altitude 10° 06:17:40 10° 76° (ENE) 2,077 11.4 -9.7°
Sets 06:20:07 0° 69° (ENE) 2,990 12.6 -9.3°
